Location: Althorst
(53.6379°N, 10.7715°E)
Time: 05:08:36
(UTC+00:00)

ATLAS 3B R/B - Pass Details

Date: 10 December 2019
Orbit: 1027 x 1168 km, 63.8° (Epoch: 16 January)

Event Time Altitude Azimuth Distance (km) Brightness Sun altitude
Rises 16:00:04 0° 312° (NW) 3,796 5.9 -8.6°
Reaches altitude 10° 16:02:52 10° 304° (NW) 2,849 5.3 -9.0°
Maximum altitude 16:08:51 36° 241° (WSW) 1,607 4.5 -9.8°
Drops below altitude 10° 16:14:58 10° 178° (S) 2,905 5.3 -10.6°
Sets 16:17:51 0° 170° (S) 3,879 5.8 -11.0°
